Wetbulb
52.86 51.84 50.36 48.00 46.30 47.74 40.16 43.62 42.01 45.81 50.35 57.29 59.26 60.17 64.30 65.95 66.14 68.51 67.04 66.86 66.27 68.74 70.39 70.86 71.44 71.97 73.52 75.08 75.29 75.33 75.48 75.34
51.80 51.10 51.33 51.92 50.36 43.03 43.70 40.16 39.99 45.77 48.32 50.03 54.49 59.43 63.67 64.86 65.95 68.04 69.86 70.80 69.31 66.60 68.98 70.92 72.15 71.96 74.15 75.65 75.57 76.30 76.16 76.50
49.44 46.91 46.36 46.21 46.04 48.92 45.45 45.11 41.50 41.05 45.70 55.72 55.79 61.39 62.70 64.46 66.20 67.95 69.59 70.06 71.44 70.22 68.24 66.26 65.35 71.97 74.99 75.30 75.45 75.94 76.21 76.74
46.31 50.95 52.01 52.08 47.07 49.00 43.73 45.11 43.72 44.75 45.88 57.51 59.06 63.45 63.83 64.19 65.11 67.22 69.53 70.28 71.21 70.09 65.32 64.65 64.35 69.44 67.64 70.67 75.22 75.63 75.60 75.03
45.54 45.25 49.20 47.34 48.24 53.54 46.75 45.99 43.74 42.64 46.37 55.99 58.42 58.58 62.39 65.09 66.17 66.67 67.85 68.89 70.02 71.36 71.23 69.66 72.55 73.41 72.66 71.12 70.32 71.77 75.49 75.19
43.72 46.38 49.81 47.84 48.95 49.15 49.56 43.66 43.97 45.83 49.32 53.99 56.54 57.61 59.95 61.28 65.11 66.66 66.80 67.60 68.89 70.67 72.42 73.73 73.59 73.14 72.15 73.24 73.42 74.63 74.43 74.07
48.80 51.81 53.45 50.55 49.84 50.37 49.05 50.12 46.58 46.33 51.04 54.14 56.69 57.43 59.74 61.39 62.96 65.70 66.75 67.98 69.82 70.68 71.00 71.14 71.75 72.23 72.84 74.11 74.92 75.03 74.61 73.68
47.95 52.30 52.06 50.88 52.26 51.63 51.86 51.59 50.32 49.73 48.58 57.37 57.72 58.30 60.59 60.88 62.44 63.72 65.56 67.35 69.87 70.53 70.69 70.74 71.14 72.08 74.16 73.55 72.82 73.00 72.65 73.04
43.86 50.79 50.52 45.63 49.02 49.25 49.93 51.22 50.99 47.51 51.72 55.64 55.57 58.73 59.76 60.31 63.94 64.09 65.23 66.07 66.19 67.78 69.52 70.49 71.28 72.79 71.64 72.70 72.73 74.45 74.50 75.88
44.85 46.65 41.34 49.85 53.19 54.41 53.81 54.38 53.83 53.27 54.66 56.16 57.37 58.04 60.08 60.94 62.94 64.13 65.16 67.27 66.93 68.71 70.16 69.85 70.27 71.33 71.99 72.98 73.14 72.86 73.35 75.27
44.18 44.17 48.01 52.35 54.98 54.64 51.65 51.67 55.28 54.07 56.36 57.30 57.85 60.23 59.21 62.81 64.98 65.34 65.73 65.98 67.54 69.62 68.55 67.30 67.46 70.71 71.58 71.06 71.10 70.25 71.56 74.20
47.29 43.99 42.73 51.79 55.89 57.40 56.56 49.24 57.29 57.15 56.86 59.25 58.97 52.63 57.65 63.43 65.21 64.81 64.69 64.87 64.99 67.35 67.12 65.86 66.01 66.64 68.34 68.26 68.89 69.14 71.33 72.89
47.44 46.76 49.97 54.92 56.89 57.51 47.42 49.60 57.33 58.21 59.35 60.44 58.30 59.23 61.20 63.96 64.33 64.77 64.21 63.85 64.30 64.92 64.24 64.46 64.80 65.02 64.60 65.20 66.80 68.43 69.07 69.07
47.74 46.16 45.40 59.18 58.41 52.89 55.44 56.76 58.49 58.77 58.85 61.00 61.38 62.74 63.01 63.25 63.01 63.17 62.50 62.42 62.65 61.89 61.63 62.18 63.29 62.88 62.25 63.03 66.55 66.51 66.90 66.73
51.29 52.15 57.61 58.01 58.02 58.52 58.00 56.88 56.31 56.92 59.60 60.29 60.37 61.25 62.36 61.60 61.44 61.54 61.23 61.39 62.31 61.28 61.16 62.55 63.43 63.47 62.20 63.65 65.92 65.83 65.14 64.65
52.45 54.62 56.95 58.35 58.55 59.32 58.81 58.22 58.82 60.50 62.09 61.46 59.70 61.01 60.61 60.41 60.64 60.61 61.15 61.24 61.73 61.79 61.84 61.83 63.79 64.03 63.62 64.31 64.85 65.15 64.97 65.46
52.74 55.75 57.08 58.80 60.80 59.45 60.02 60.69 61.04 61.84 62.12 61.36 60.41 60.11 60.13 60.22 60.27 60.65 61.07 61.72 62.10 61.52 61.43 61.89 62.98 63.05 64.00 64.92 64.15 62.09 62.25 62.99
50.83 56.93 57.08 57.97 60.19 61.29 59.68 59.55 60.41 60.18 60.22 61.47 60.64 59.30 59.98 59.71 60.57 60.42 59.78 61.04 61.50 61.65 61.53 61.63 62.57 62.82 62.84 63.18 62.38 61.31 60.89 60.61
55.38 57.88 59.24 60.10 60.90 61.12 60.07 60.25 61.01 60.44 61.33 60.33 61.81 61.73 61.37 60.55 61.02 61.08 61.43 61.40 61.88 62.54 62.24 61.65 61.24 61.07 61.91 62.73 62.59 61.51 60.80 60.33
MSLP
1001.64 1001.93 1002.58 1002.65 1003.23 1003.62 1004.72 1005.29 1006.15 1005.96 1005.75 1004.96 1004.46 1004.79 1005.43 1006.60 1007.29 1006.35 1005.76 1004.62 1005.81 1006.31 1005.91 1007.67 1008.25 1009.00 1009.68 1010.85 1011.71 1012.47 1012.92 1013.59
1001.58 1001.73 1001.94 1002.21 1002.84 1003.57 1004.45 1005.85 1006.72 1006.69 1006.18 1005.79 1005.29 1005.63 1005.74 1006.22 1006.42 1006.11 1005.88 1005.84 1006.61 1005.44 1006.13 1008.48 1008.83 1009.37 1009.90 1010.77 1011.57 1011.77 1012.31 1012.87
1002.09 1002.17 1002.11 1002.25 1002.65 1003.13 1004.32 1005.23 1006.61 1007.24 1006.89 1005.69 1005.57 1005.75 1006.11 1006.45 1006.58 1006.33 1006.28 1006.53 1006.99 1008.20 1007.28 1011.62 1012.40 1009.86 1009.43 1009.66 1011.14 1011.93 1011.82 1012.08
1002.46 1001.84 1001.61 1001.91 1002.27 1002.97 1004.49 1005.43 1005.80 1006.26 1006.61 1005.47 1005.55 1005.89 1006.25 1006.73 1006.73 1006.64 1006.57 1006.80 1007.67 1009.37 1010.74 1011.22 1009.32 1012.49 1011.18 1012.35 1010.71 1011.13 1011.13 1011.35
1002.67 1002.45 1001.70 1001.55 1001.90 1002.29 1003.30 1004.30 1005.44 1006.18 1006.69 1005.68 1005.75 1006.25 1006.45 1006.84 1006.97 1006.96 1006.92 1007.05 1007.52 1008.28 1009.97 1010.69 1010.40 1009.77 1010.08 1010.25 1010.12 1010.40 1010.78 1010.97
1002.99 1001.78 1001.18 1001.59 1001.64 1002.09 1002.89 1004.66 1005.47 1005.71 1005.92 1006.24 1006.28 1006.55 1006.72 1007.19 1007.21 1007.23 1007.35 1007.62 1007.88 1008.59 1008.99 1009.28 1009.41 1009.54 1010.14 1010.26 1010.10 1010.31 1010.43 1010.80
1002.54 1001.68 1000.69 1000.94 1001.27 1001.81 1002.61 1003.54 1004.61 1005.33 1005.90 1006.25 1006.27 1006.55 1006.87 1007.06 1007.29 1007.62 1007.93 1008.40 1008.61 1009.16 1009.53 1009.71 1009.86 1010.00 1009.93 1010.01 1010.31 1010.69 1010.83 1010.91
1003.02 1002.07 1000.91 1000.76 1000.82 1001.03 1001.75 1002.61 1003.42 1004.02 1005.04 1005.26 1005.85 1006.30 1006.98 1007.33 1007.55 1008.09 1008.34 1008.77 1009.04 1009.18 1009.54 1009.94 1010.13 1010.26 1010.34 1010.55 1010.50 1010.56 1010.70 1010.89
1003.68 1002.59 1001.70 1000.84 1000.34 1000.66 1001.24 1001.86 1002.61 1003.69 1004.41 1004.79 1005.59 1006.17 1006.73 1007.30 1007.61 1008.13 1008.54 1008.83 1009.22 1009.53 1009.55 1010.01 1010.26 1010.37 1010.63 1010.67 1010.77 1010.85 1011.04 1011.29
1004.15 1003.22 1002.39 1000.83 1000.00 1000.24 1001.31 1001.98 1002.54 1003.45 1004.36 1004.75 1005.28 1005.82 1006.33 1006.82 1007.53 1008.27 1008.58 1009.11 1009.64 1009.83 1010.40 1010.75 1010.61 1010.31 1010.43 1010.79 1011.05 1011.27 1011.45 1011.64
1004.29 1003.63 1002.34 1000.95 1000.53 1000.85 1001.58 1002.96 1002.93 1003.57 1004.33 1004.79 1005.39 1006.26 1007.51 1007.25 1007.77 1008.42 1008.92 1009.44 1009.98 1010.37 1010.86 1011.13 1011.22 1011.09 1011.12 1011.34 1011.52 1011.89 1011.88 1011.92
1004.06 1003.99 1003.18 1002.11 1001.39 1001.08 1001.59 1004.01 1004.24 1004.20 1004.91 1005.60 1005.73 1007.72 1008.76 1008.39 1008.50 1009.05 1009.34 1009.79 1010.34 1010.59 1010.95 1011.34 1011.68 1011.74 1011.99 1012.14 1012.32 1012.64 1012.61 1012.52
1004.38 1004.05 1003.54 1002.64 1002.01 1001.80 1003.30 1005.36 1004.82 1004.96 1005.61 1006.30 1007.26 1008.11 1008.70 1008.91 1009.30 1009.56 1010.00 1010.41 1010.68 1011.14 1011.59 1011.83 1011.88 1012.00 1012.39 1012.42 1012.85 1013.02 1012.95 1012.95
1004.62 1004.59 1004.54 1003.65 1003.15 1003.73 1004.76 1004.82 1005.14 1005.47 1006.00 1006.77 1007.37 1008.15 1008.74 1009.30 1009.75 1010.11 1010.60 1010.87 1011.07 1011.57 1011.98 1011.99 1012.19 1012.36 1012.76 1012.94 1012.77 1012.67 1012.78 1012.96
1005.31 1005.10 1004.83 1004.32 1004.53 1004.68 1004.73 1005.10 1005.56 1005.88 1006.33 1006.70 1007.49 1008.21 1008.69 1009.39 1009.87 1010.26 1010.74 1011.18 1011.44 1011.96 1012.31 1012.35 1012.51 1012.66 1012.99 1012.87 1012.81 1012.78 1012.77 1012.68
1006.32 1006.78 1006.02 1005.32 1005.20 1004.83 1004.97 1005.61 1005.70 1006.00 1006.57 1007.10 1007.88 1008.49 1009.20 1009.72 1010.32 1010.79 1011.09 1011.51 1011.87 1012.24 1012.63 1012.88 1012.85 1012.92 1012.96 1012.91 1012.76 1012.88 1012.92 1012.82
1007.92 1007.19 1006.56 1006.10 1005.65 1005.42 1005.32 1005.75 1006.19 1006.54 1006.91 1007.60 1008.24 1009.13 1009.79 1010.45 1010.92 1011.15 1011.46 1011.76 1012.06 1012.49 1012.82 1012.97 1012.84 1012.84 1012.77 1012.65 1012.66 1012.79 1012.80 1012.71
1006.86 1006.16 1006.64 1006.49 1005.23 1005.30 1005.78 1006.15 1006.24 1006.56 1007.18 1007.81 1008.39 1009.08 1009.62 1010.38 1010.70 1011.10 1011.40 1011.60 1011.89 1012.28 1012.53 1012.51 1012.50 1012.49 1012.40 1012.19 1012.22 1012.32 1012.29 1012.19
1006.19 1006.67 1005.94 1005.21 1005.07 1005.28 1005.50 1005.94 1006.24 1006.60 1007.22 1007.88 1008.30 1008.92 1009.58 1010.26 1010.55 1010.83 1011.19 1011.61 1011.94 1012.18 1012.25 1012.25 1012.20 1012.09 1011.93 1011.62 1011.50 1011.55 1011.55 1011.46
Wind_Speed
9 6 8 9 3 7 1 2 7 4 3 8 9 8 11 12 14 5 12 8 28 28 19 19 17 19 19 20 18 17 16 12
4 2 6 1 5 6 6 2 2 4 4 5 7 7 9 9 8 8 11 15 4 20 15 6 8 14 12 17 17 16 15 12
7 5 8 2 4 4 5 5 7 4 3 7 6 10 10 8 8 8 9 9 16 18 20 20 27 9 12 15 14 13 13 13
10 10 9 5 2 1 6 4 2 7 4 6 10 12 11 9 7 5 6 7 11 22 23 30 21 7 25 27 13 13 13 9
3 6 2 1 4 3 3 4 4 7 5 5 10 10 8 10 7 4 6 6 7 8 12 12 8 6 16 10 8 9 8 8
8 11 8 7 6 3 3 6 1 4 6 7 8 10 9 9 7 6 4 6 5 8 8 8 8 9 5 4 7 6 7 6
9 11 10 14 11 8 5 2 5 5 9 8 9 9 9 8 9 10 3 6 8 7 6 6 6 5 4 5 8 6 5 1
9 12 4 11 11 10 10 7 5 6 6 11 8 8 9 9 8 9 9 8 6 8 7 5 5 2 3 4 4 4 4 3
9 9 7 2 4 3 4 4 5 5 11 7 8 11 10 9 10 9 8 7 7 3 7 7 7 5 3 2 0 2 2 3
7 5 4 7 4 9 10 7 7 8 7 5 8 9 9 8 10 9 8 9 7 8 11 8 8 4 5 3 4 2 1 2
4 3 6 6 3 8 3 5 6 9 10 8 8 11 9 8 8 9 9 8 8 7 8 8 8 8 4 3 3 2 3 3
2 5 4 2 7 7 7 3 7 11 10 11 9 7 1 8 10 10 10 8 7 7 7 8 6 8 7 6 9 7 6 6
1 4 5 2 5 6 7 7 6 9 10 11 8 7 7 9 8 8 8 6 6 7 7 5 5 7 6 5 5 1 3 5
0 2 2 6 9 8 6 4 9 7 7 9 11 10 9 8 8 9 9 6 5 5 4 4 5 4 3 4 4 5 4 3
3 6 4 6 8 5 8 8 7 6 7 8 9 7 10 8 8 7 8 6 5 5 4 4 5 4 4 6 6 7 7 7
6 9 8 7 6 8 8 8 8 7 9 8 7 9 7 6 7 7 6 6 5 6 5 4 4 5 4 5 5 5 6 7
4 5 7 13 1 6 8 8 8 8 9 10 10 8 8 7 7 6 5 4 4 2 1 4 4 5 6 4 3 4 5 6
4 4 11 6 8 8 7 6 7 7 7 7 8 5 5 3 3 3 2 3 3 5 5 7 6 6 6 6 6 6 6 5
4 10 5 4 6 7 8 7 7 4 6 7 8 8 6 5 5 6 4 2 3 4 4 5 6 7 8 8 8 8 7 6
Wind_Direction
160 194 163 280 6 241 168 16 79 143 121 32 65 66 82 98 162 352 350 46 161 209 192 191 177 175 174 173 180 182 188 191
143 183 265 196 252 3 340 145 121 52 92 173 86 88 70 54 42 19 16 18 93 208 190 125 190 171 152 168 180 182 183 189
99 178 216 294 304 259 157 119 144 127 246 185 142 132 104 80 50 27 20 26 40 96 76 63 302 262 148 158 174 182 187 192
188 214 216 244 258 85 110 330 130 124 296 126 96 115 113 113 97 54 52 33 79 103 126 170 216 191 124 257 182 189 196 192
246 301 222 185 282 282 2 63 212 116 231 144 103 98 114 119 121 91 70 68 79 89 136 179 186 93 153 202 184 194 174 176
199 214 166 174 209 281 90 74 10 141 117 88 100 102 92 99 118 125 98 41 84 64 68 48 44 60 52 81 81 93 124 137
286 305 188 173 184 177 165 155 116 142 131 158 140 124 123 106 75 66 91 88 100 93 76 68 60 47 18 53 66 65 78 135
308 292 255 161 185 175 168 177 206 125 118 145 145 112 105 109 103 85 68 54 110 125 124 113 102 26 34 76 94 83 50 8
267 287 310 182 181 159 176 164 174 169 163 147 152 132 141 135 125 113 97 73 40 345 158 146 161 176 145 155 250 129 184 272
244 332 315 234 213 142 109 102 75 73 104 102 148 160 144 141 134 126 109 81 49 82 61 43 12 182 168 138 79 53 278 150
171 240 256 319 48 97 79 59 62 92 60 23 87 84 32 86 100 105 97 79 70 86 93 58 27 18 73 67 109 351 289 166
221 172 227 176 85 70 97 32 350 74 59 60 32 86 203 90 88 80 71 62 46 91 82 69 39 40 47 28 54 41 17 14
320 215 119 13 61 99 112 197 60 75 81 81 86 148 136 85 84 102 107 76 46 59 83 77 57 48 23 18 51 30 352 357
220 58 263 310 31 102 194 80 88 68 89 114 126 123 122 123 127 124 129 133 98 73 65 35 35 58 2 340 330 353 351 342
80 162 177 59 114 86 82 100 58 87 56 104 103 130 136 136 133 136 117 114 83 77 50 17 28 25 351 309 338 335 332 317
42 358 9 86 72 88 77 73 53 91 96 82 74 77 115 107 88 89 81 78 61 50 29 351 0 359 322 309 306 306 293 284
178 204 359 297 120 109 85 88 75 65 81 86 77 67 74 69 68 74 77 61 68 63 308 286 287 281 276 282 316 303 290 282
189 194 184 199 137 130 125 127 106 116 95 114 115 121 106 102 116 128 184 227 224 230 234 253 254 253 256 247 240 246 253 251
87 333 355 102 116 80 109 97 76 49 159 158 165 164 175 182 196 213 231 238 268 266 272 273 268 259 251 245 238 238 240 247